[[{"header":{"parameterUnit":"m.s-1","parameterCategory":1,"la1":30.2991,"la2":30.254,"lo1":-89.0895,"lo2":-89.0444,"dy":0.0017,"dx":0.0017,"nx":28,"ny":28,"refTime":"2024-09-27T21:00:00:Z","depth":0,"parameterNumber":2,"parameterNumberName":"U-component_of_WINDS"},"data":[0,0,0,0,0,0,0,0,0,0,0,0,0,0,0,0,0,0,0,0,0,0,0,0,0,0,0,0,0,0,0,0,0,0,0,0,0,0,0,0,0,0,0,0,0,0,0,0,0,0,0,0,0,0,0,0,0,0,3.8665,3.8667,0,3.8858,3.886,3.8862,3.8821,3.8818,3.8814,3.8811,3.9012,3.902,3.9029,0,0,0,0,0,0,0,0,0,0,0,0,0,3.8264,3.8272,3.8665,3.8667,3.867,3.8857,3.886,3.8863,3.8822,3.8818,3.8813,3.8809,3.9009,3.9019,3.9029,0,0,0,0,0,0,0,0,0,0,0,0,0,3.8446,3.8275,3.8665,3.8672,3.8675,3.8857,3.886,3.8863,3.8823,3.8818,3.8812,3.8807,3.9005,3.9018,3.9031,3.9219,0,0,3.9071,3.9076,0,0,0,0,0,0,0,0,3.8436,3.8461,3.8669,3.8672,3.8675,3.881,3.8792,3.8983,3.8824,3.8767,3.8811,3.8805,3.8949,3.8966,3.9014,3.9228,3.9237,3.9072,3.908,3.9085,3.9089,0,0,0,0,0,0,0,3.8423,3.8452,3.8741,3.8672,3.8676,3.8667,3.8686,3.8828,3.8886,3.8771,3.8769,3.8792,3.895,3.9002,3.9019,3.924,3.9071,3.9083,3.9091,3.9096,3.9616,3.9621,0,0,0,0,0,0,3.8407,3.8442,3.8735,3.8747,3.854,3.8678,3.87,3.8772,3.8884,3.8896,3.8796,3.8789,3.8982,3.9004,3.9026,3.9252,3.9085,3.9097,3.9105,3.961,3.9617,3.9623,0,0,0,0,0,0,3.8399,3.8434,3.8727,3.8594,3.8631,3.8691,3.8772,3.8779,3.8831,3.8903,3.8913,3.8839,3.8979,3.9007,3.917,3.9258,3.9103,3.9115,3.9603,3.9612,3.962,3.9706,0,0,0,0,0,0,3.8388,3.8431,3.8503,3.8596,3.8638,3.8868,3.8777,3.8786,3.8853,3.8846,3.8946,3.8957,3.8977,3.9151,3.9183,3.9273,3.9125,3.9595,3.9607,3.9617,3.9696,3.9717,3.9735,0,0,0,0,0,3.8373,3.852,3.8506,3.8542,3.8728,3.8873,3.8898,3.8917,3.886,3.8933,3.8979,3.8954,3.9244,3.9168,3.9204,3.9299,3.959,3.9603,3.9616,3.9687,3.9713,3.9734,0,0,0,0,0,0,3.8437,3.8533,3.8518,3.8699,3.8778,3.8866,3.8958,3.8944,3.9041,3.903,3.9051,3.9074,3.9239,3.9286,3.92,3.9486,3.9409,3.943,3.945,3.9475,3.9494,3.9479,3.9136,0,0,0,0,0,3.8472,3.8581,3.8659,3.8811,3.8851,3.8898,3.8962,3.897,3.9053,3.9087,3.9145,3.9227,3.9337,3.9409,3.9513,3.9702,3.9723,3.9785,3.9805,3.9821,3.9839,3.9941,3.9969,3.9668,3.9668,3.9667,0,0,3.8546,3.8611,3.8679,3.8826,3.8888,3.9001,3.8927,3.905,3.9134,3.9106,3.9262,3.9308,3.9402,3.9578,3.9659,3.9622,3.9927,3.9838,3.985,3.986,3.9958,3.9986,4.0012,3.9677,3.9675,3.9674,0,0,3.8737,3.8798,3.8931,3.8994,3.9088,3.9118,3.915,3.9241,3.9269,3.9427,3.9408,3.9508,3.9697,3.9764,3.9823,4.0038,4.0019,4.0072,4.0175,4.0274,4.0298,4.0319,4.0395,4.0422,4.009,4.009,4.009,0,3.8817,3.8985,3.9001,3.9126,3.919,3.9169,3.9303,3.9365,3.9489,3.9535,3.9491,3.9726,3.9788,3.9979,4.0031,4.008,4.0117,4.006,4.0293,4.0314,4.0334,4.0407,4.0436,4.0096,4.0095,4.0095,4.0094,0,3.9078,3.9195,3.9292,3.941,3.9486,3.9615,3.9651,3.9726,3.9727,3.9762,3.9922,3.9995,4.0113,4.0159,4.0163,4.0351,4.0325,4.0288,4.021,4.0369,4.0437,4.0465,4.0104,4.0102,4.01,4.0099,0,0,3.9316,3.944,3.9476,3.9528,3.9631,3.9722,3.985,3.9964,4.0028,4.0115,4.0222,4.0382,4.0347,4.0414,4.0424,4.0511,4.0676,4.0463,4.0465,4.0499,4.0888,4.0915,4.0947,4.0664,4.0669,4.0674,4.0879,0,3.9516,3.974,3.9757,3.996,4.0068,4.0048,4.016,4.0235,4.0271,4.0368,4.0408,4.052,4.0466,4.0506,4.0592,4.0638,4.0754,4.0623,4.0765,4.0769,4.0741,4.0983,4.1012,4.1203,4.0906,4.0911,4.0914,0,3.9779,3.9871,4.0084,4.017,4.0216,4.0315,4.0421,4.0514,4.0599,4.0619,4.0693,4.0691,4.0823,4.074,4.0922,4.0833,4.0892,4.0923,4.0931,4.0944,4.0851,4.1002,4.1264,4.1292,4.0957,4.0954,4.0951,0,3.9929,4.0107,4.0257,4.0303,4.0407,4.0478,4.0524,4.0604,4.0671,4.0764,4.0808,4.0915,4.0974,4.1058,4.1085,4.1023,4.1266,4.1186,4.1286,4.1286,4.1338,4.1334,4.1613,4.1378,4.1377,4.1377,4.1376,0,4.0151,4.0281,4.0326,4.0418,4.0564,4.0583,4.0727,4.077,4.084,4.0941,4.0931,4.1026,4.1056,4.1157,4.1179,4.1326,4.1353,4.1373,4.1377,4.1373,4.1371,4.1412,4.1399,4.1384,4.1383,4.1381,4.138,0,4.0343,4.0378,4.054,4.0624,4.0649,4.0752,4.0825,4.0914,4.0947,4.1075,4.1106,4.1159,4.1276,4.1312,4.1454,4.1468,4.164,4.1633,4.1611,4.1611,4.1709,4.1699,4.2023,4.2066,4.1803,4.1806,4.1808,0,4.0481,4.0581,4.0676,4.0741,4.0791,4.0897,4.0965,4.0988,4.106,4.1163,4.1239,4.1355,4.1448,4.1637,4.1689,4.1797,4.1792,4.1898,4.1808,4.18,4.1792,4.1785,4.1795,4.1914,4.1917,4.1919,4.1921,0,4.0723,4.0735,4.0833,4.0937,4.1018,4.1101,4.1182,4.1236,4.1271,4.1352,4.147,4.1543,4.1686,4.1801,4.1911,4.196,4.1947,4.1949,4.1978,4.1974,4.1957,4.1967,4.1656,4.1941,4.1939,4.1938,4.1937,4.1936,4.0892,4.0979,4.1059,4.1168,4.123,4.1305,4.1392,4.1436,4.1535,4.1652,4.166,4.1789,4.187,4.2016,4.207,4.2172,4.2141,4.2183,4.2193,4.2203,4.221,4.1941,4.2192,4.2192,4.2191,4.2191,4.219,0,4.1132,4.1182,4.1282,4.1394,4.1479,4.1458,4.1546,4.1619,4.1731,4.1808,4.19,4.2036,4.2147,4.2207,4.2317,4.2387,4.2384,4.2415,4.241,4.2421,4.2232,4.2196,4.2416,4.2416,4.2416,4.2416,4.2416,4.2416,4.1267,4.1413,4.1434,4.1611,4.166,4.1785,4.1836,4.1905,4.1966,4.2118,4.2209,4.2247,4.2317,4.2433,4.2534,4.2548,4.2589,4.2624,4.2636,4.2458,4.2435,4.2413,4.2378,4.2633,4.2633,4.2816,4.2818,4.2819]},{"header":{"parameterUnit":"m.s-1","parameterCategory":1,"la1":30.2991,"la2":30.254,"lo1":-89.0895,"lo2":-89.0444,"dy":0.0017,"dx":0.0017,"nx":28,"ny":28,"refTime":"2024-09-27T21:00:00:Z","depth":0,"parameterNumber":3,"parameterNumberName":"V-component_of_WINDS"},"data":[0,0,0,0,0,0,0,0,0,0,0,0,0,0,0,0,0,0,0,0,0,0,0,0,0,0,0,0,0,0,0,0,0,0,0,0,0,0,0,0,0,0,0,0,0,0,0,0,0,0,0,0,0,0,0,0,0,0,1.2345,1.2345,0,1.2366,1.2366,1.2366,1.2317,1.2315,1.2313,1.2312,1.2336,1.2338,1.2341,0,0,0,0,0,0,0,0,0,0,0,0,0,1.2265,1.2267,1.2345,1.2345,1.2345,1.2365,1.2366,1.2366,1.2317,1.2315,1.2313,1.2311,1.2336,1.2338,1.2341,0,0,0,0,0,0,0,0,0,0,0,0,0,1.2294,1.2268,1.2345,1.2323,1.2321,1.2365,1.2366,1.2366,1.2317,1.2315,1.2312,1.231,1.2335,1.2338,1.2341,1.2408,0,0,1.2351,1.2352,0,0,0,0,0,0,0,0,1.2293,1.2297,1.2326,1.2325,1.2323,1.2336,1.2347,1.238,1.2318,1.2319,1.2312,1.2309,1.2338,1.2341,1.235,1.2409,1.241,1.2351,1.2353,1.2354,1.2355,0,0,0,0,0,0,0,1.2291,1.2296,1.2353,1.2327,1.2325,1.2313,1.2315,1.2353,1.2342,1.2319,1.2315,1.2318,1.2337,1.2347,1.2351,1.2411,1.2351,1.2354,1.2356,1.2357,1.2526,1.2528,0,0,0,0,0,0,1.2291,1.2295,1.2352,1.2354,1.2302,1.2317,1.2318,1.2334,1.2341,1.234,1.232,1.2316,1.2343,1.2347,1.2351,1.243,1.2354,1.2357,1.2359,1.2523,1.2526,1.2529,0,0,0,0,0,0,1.229,1.2297,1.2352,1.2323,1.2329,1.232,1.2339,1.2336,1.2346,1.2342,1.234,1.2332,1.2341,1.2347,1.2394,1.2431,1.2359,1.2362,1.252,1.2524,1.2528,1.2589,0,0,0,0,0,0,1.2288,1.2297,1.2322,1.2324,1.2331,1.2394,1.2341,1.2338,1.2351,1.2346,1.2353,1.2352,1.234,1.239,1.2397,1.2434,1.2364,1.2517,1.2522,1.2527,1.2584,1.2595,1.2604,0,0,0,0,0,1.2285,1.2339,1.2323,1.233,1.2362,1.2396,1.24,1.2384,1.2354,1.238,1.2377,1.2352,1.2425,1.2395,1.2403,1.2441,1.2515,1.2521,1.2526,1.258,1.2593,1.2604,0,0,0,0,0,0,1.2342,1.2339,1.2321,1.2377,1.2387,1.2387,1.2419,1.2398,1.2417,1.2411,1.2391,1.2393,1.2445,1.2447,1.2414,1.2506,1.2465,1.2473,1.2503,1.2515,1.2525,1.2524,1.2367,0,0,0,0,0,1.2361,1.2388,1.2384,1.2434,1.2439,1.2428,1.2443,1.2429,1.2439,1.2443,1.2444,1.2455,1.248,1.2498,1.2521,1.2584,1.2585,1.2614,1.2624,1.2632,1.2639,1.2673,1.2686,1.2548,1.2548,1.2548,0,0,1.2401,1.2402,1.2421,1.2445,1.2451,1.248,1.2432,1.2465,1.2487,1.2448,1.2493,1.2494,1.2505,1.2561,1.2585,1.2565,1.2678,1.2639,1.2646,1.2649,1.268,1.2694,1.2705,1.2552,1.2551,1.2551,0,0,1.2488,1.2492,1.2533,1.254,1.2549,1.2541,1.2551,1.2555,1.2554,1.2598,1.2569,1.2595,1.2639,1.2648,1.2659,1.2749,1.2727,1.2757,1.281,1.2843,1.2854,1.2863,1.2896,1.2908,1.2764,1.2764,1.2764,0,1.2537,1.2579,1.2558,1.2593,1.2605,1.2569,1.2612,1.262,1.2637,1.2646,1.2622,1.2676,1.2682,1.2739,1.2761,1.277,1.2782,1.2757,1.2854,1.2863,1.2872,1.2903,1.2915,1.2768,1.2767,1.2767,1.2767,0,1.2638,1.2668,1.2701,1.2716,1.2732,1.2771,1.2757,1.2775,1.276,1.2755,1.28,1.2805,1.2828,1.2841,1.2827,1.2896,1.2883,1.2857,1.2815,1.2889,1.2918,1.293,1.2773,1.2772,1.2771,1.277,0,0,1.2764,1.2766,1.2779,1.2786,1.2793,1.2816,1.2853,1.2874,1.2891,1.2903,1.2935,1.2972,1.2948,1.296,1.2946,1.2975,1.3047,1.2945,1.2945,1.2965,1.3124,1.3145,1.3159,1.3031,1.3034,1.3035,1.3124,0,1.2851,1.2913,1.2896,1.2959,1.2986,1.2953,1.2985,1.2993,1.2989,1.3013,1.3008,1.3036,1.3001,1.3008,1.3035,1.3032,1.3079,1.3026,1.3062,1.3063,1.3061,1.3174,1.3196,1.3279,1.3135,1.3137,1.3138,0,1.2961,1.2976,1.3042,1.3044,1.3055,1.3084,1.3103,1.3125,1.3134,1.3129,1.3142,1.3122,1.316,1.3117,1.3168,1.3133,1.3146,1.3147,1.315,1.3154,1.3106,1.3182,1.3305,1.3318,1.3156,1.3154,1.3153,0,1.3047,1.3084,1.3128,1.3135,1.3138,1.316,1.3162,1.3168,1.3182,1.3199,1.3208,1.3229,1.3241,1.3257,1.3244,1.3214,1.3299,1.3254,1.3297,1.3297,1.3317,1.3316,1.3446,1.3324,1.3324,1.3324,1.3323,0,1.3146,1.3188,1.3167,1.3194,1.324,1.3219,1.3266,1.3264,1.327,1.3297,1.3269,1.3296,1.3276,1.3301,1.3291,1.3336,1.3341,1.3339,1.3336,1.3342,1.3343,1.3352,1.3346,1.3327,1.3326,1.3326,1.3325,0,1.3251,1.3238,1.3284,1.3283,1.3283,1.3317,1.3317,1.3342,1.3336,1.3371,1.3378,1.3368,1.3396,1.3384,1.3413,1.3406,1.3464,1.3453,1.3461,1.3459,1.3502,1.3499,1.3643,1.3661,1.3527,1.3528,1.3529,0,1.3316,1.3347,1.3349,1.3364,1.3368,1.3394,1.3408,1.3388,1.3404,1.3416,1.3441,1.3466,1.3485,1.3531,1.3527,1.355,1.3539,1.3588,1.3543,1.3548,1.3541,1.354,1.3544,1.3598,1.36,1.3601,1.3602,0,1.3433,1.3425,1.3445,1.3463,1.348,1.3494,1.3506,1.352,1.3501,1.3521,1.3548,1.3563,1.3592,1.3618,1.3637,1.3641,1.3619,1.3616,1.3627,1.3634,1.3638,1.3638,1.3487,1.3613,1.3612,1.3611,1.3611,1.361,1.352,1.3546,1.3551,1.3575,1.3581,1.3593,1.3617,1.3612,1.3635,1.3656,1.3643,1.3676,1.3684,1.3708,1.3714,1.374,1.3721,1.3737,1.3741,1.3746,1.3752,1.3633,1.3743,1.3743,1.3743,1.3742,1.3742,0,1.3636,1.3638,1.366,1.3676,1.3695,1.367,1.3682,1.37,1.3728,1.3736,1.3755,1.3787,1.3812,1.3809,1.3832,1.3853,1.3843,1.386,1.3859,1.386,1.3767,1.3756,1.3867,1.3867,1.3867,1.3867,1.3867,1.3867,1.3699,1.3742,1.3735,1.3781,1.3782,1.3812,1.3821,1.3832,1.3838,1.3875,1.3894,1.3892,1.3896,1.3919,1.3941,1.3939,1.395,1.397,1.3965,1.3879,1.3866,1.3855,1.3844,1.3972,1.3972,1.4056,1.4057,1.4057]}]]